Station MOKH1 - 1612480 - Mokuoloe, HI Image indicating link to RSS feed of recent meteorological observations for station MOKH1


Conditions at MOKH1 as of
(4:36 am HAST)
1436 GMT on 04/15/2024:
     

Click on the graph icon in the table below to see a time series plot of the last five days of that observation.

5-day plot - Wind Direction Wind Direction (WDIR): S ( 190 deg true )
5-day plot - Wind Speed Wind Speed (WSPD): 1.9 kts
5-day plot - Wind Gust Wind Gust (GST): 2.9 kts
5-day plot - Atmospheric Pressure Atmospheric Pressure (PRES):29.86 in
5-day plot - Air Temperature Air Temperature (ATMP): 68.2 °F
5-day plot - Water Temperature Water Temperature (WTMP): 76.5 °F
5-day plot - Wind Speed at 10 Meters Wind Speed at 10 meters (WSPD10M): 1.9 kts
5-day plot - Wind Speed at 20 Meters Wind Speed at 20 meters (WSPD20M): 1.9 kts
5-day plot -  Wind Speed, Wind Gust and Atmospheric Pressure Combined plot of Wind Speed, Gust, and Air Pressure
NOS Water Level Observation Network Water Level
Previous observations
TIME
(HAST)
5-day plot - Wind Direction
WDIR
 
5-day plot - Wind Speed
WSPD
kts
5-day plot - Wind Gust
GST
kts
5-day plot - Wave Height
WVHT
ft
5-day plot - Dominant Wave Period
DPD
sec
5-day plot - Average Wave Period
APD
sec
5-day plot - Mean Wave Direction
MWD
 
5-day plot - Atmospheric Pressure
PRES
in
5-day plot - Pressure Tendency
PTDY
in
5-day plot - Air Temperature
ATMP
°F
5-day plot - Water Temperature
WTMP
°F
5-day plot - Dew Point
DEWP
°F
5-day plot - Salinity
SAL
psu
5-day plot - Visibility
VIS
nmi
5-day plot - Tide (above MLLW)
TIDE
ft
2024-04-15 04:30 am SW 1.9 4.1----29.86- 68.2 76.5----
2024-04-15 04:24 am S 2.9 4.1----29.85- 68.4 76.5----
2024-04-15 04:18 am SE 1.0 2.9----29.85- 68.2 76.5----
2024-04-15 04:12 am S 1.9 2.9----29.85- 68.4 76.5----
2024-04-15 04:06 am SW 1.0 1.9----29.85- 68.2 76.5----
2024-04-15 04:00 amESE 1.0 1.0----29.85-0.03 67.8 76.5----
2024-04-15 03:54 am- 0.0 1.0----29.85- 68.0 76.5----
2024-04-15 03:48 am- 0.0 1.0----29.85- 68.2 76.5----
2024-04-15 03:42 amWNW 1.0 1.9----29.85- 68.0 76.5----
2024-04-15 03:36 am- 0.0 0.0----29.85- 68.4 76.5----
2024-04-15 03:30 am- 0.0 1.0----29.85- 68.4 76.5----
2024-04-15 03:24 am- 0.0 1.0----29.85- 68.4 76.5----
2024-04-15 03:18 am- 0.0 0.0----29.85- 68.5 76.5----
2024-04-15 03:12 am- 0.0 2.9----29.85- 68.7 76.5----
2024-04-15 03:06 am- 0.0 1.9----29.85- 68.5 76.6----
2024-04-15 03:00 am SW 1.9 2.9----29.85-0.04 68.7 76.6----
2024-04-15 02:54 am S 1.0 1.9----29.85- 68.9 76.5----
2024-04-15 02:48 am S 1.0 2.9----29.85- 68.9 76.6----
2024-04-15 02:42 am S 1.9 2.9----29.85- 69.1 76.6----
2024-04-15 02:36 am S 1.9 4.1----29.85- 69.3 76.6----
2024-04-15 02:30 am- 0.0 1.9----29.86- 69.8 76.6----
2024-04-15 02:24 am S 1.9 1.9----29.86- 69.8 76.6----
2024-04-15 02:18 am- 0.0 1.9----29.86- 69.6 76.6----
2024-04-15 02:12 amWNW 1.0 1.0----29.86- 69.6 76.6----
2024-04-15 02:06 am- 0.0 1.9----29.86- 70.0 76.6----
2024-04-15 02:00 amSSW 1.9 2.9----29.87-0.04 69.8 76.6----
2024-04-15 01:54 amSSW 1.0 1.9----29.87- 70.2 76.6----
2024-04-15 01:48 am S 2.9 4.1----29.87- 70.0 76.6----
2024-04-15 01:42 amSSW 2.9 4.1----29.87- 70.3 76.5----
2024-04-15 01:36 am S 1.9 2.9----29.87- 70.5 76.6----
2024-04-15 01:30 am S 1.9 2.9----29.87- 70.7 76.6----
2024-04-15 01:24 am S 1.0 1.9----29.87- 70.9 76.6----
2024-04-15 01:18 am S 1.9 2.9----29.87- 70.7 76.5----
2024-04-15 01:12 am- 0.0 1.9----29.88- 70.9 76.5----
2024-04-15 01:06 am SW 1.0 2.9----29.88- 70.9 76.5----
2024-04-15 01:00 amSSW 1.9 1.9----29.88-0.04 70.9 76.5----
2024-04-15 12:54 am SW 1.0 1.9----29.88- 71.1 76.5----
2024-04-15 12:48 am- 0.0 1.9----29.88- 70.9 76.6----
2024-04-15 12:42 amWNW 1.9 1.9----29.88- 70.9 76.6----
2024-04-15 12:36 amWNW 1.9 1.9----29.89- 71.1 76.6----
2024-04-15 12:30 amWSW 1.0 2.9----29.89- 70.9 76.6----
2024-04-15 12:24 am- 0.0 1.9----29.89- 70.7 76.6----
2024-04-15 12:18 amWSW 1.0 1.0----29.89- 70.7 76.6----
2024-04-15 12:12 amWSW 1.0 1.9----29.89- 70.7 76.5----
2024-04-15 12:06 am W 1.9 2.9----29.89- 70.7 76.5----
2024-04-15 12:00 amWNW 1.0 1.9----29.89-0.03 70.7 76.5----
2024-04-14 11:54 pm- 0.0 1.9----29.89- 70.7 76.5----
2024-04-14 11:48 pmSSW 1.0 1.9----29.90- 70.9 76.5----
2024-04-14 11:42 pm- 0.0 2.9----29.90- 70.9 76.5----
2024-04-14 11:36 pm- 0.0 1.9----29.90- 70.9 76.5----
2024-04-14 11:30 pm- 0.0 1.0----29.91- 70.9 76.5----
2024-04-14 11:24 pmSSW 1.0 1.9----29.91- 70.9 76.5----
2024-04-14 11:18 pmWSW 1.0 1.9----29.91- 70.9 76.5----
2024-04-14 11:12 pmWSW 1.0 1.9----29.91- 70.9 76.5----
2024-04-14 11:06 pm S 1.0 1.9----29.91- 71.1 76.5----
2024-04-14 11:00 pm- 0.0 1.0----29.91+0.00 71.1 76.5----
2024-04-14 10:54 pm- 0.0 1.0----29.91- 71.2 76.5----
2024-04-14 10:48 pm- 0.0 1.9----29.91- 71.2 76.5----
2024-04-14 10:42 pm E 1.9 5.1----29.91- 71.2 76.5----
2024-04-14 10:36 pm E 4.1 5.1----29.91- 71.2 76.5----
2024-04-14 10:30 pmENE 2.9 2.9----29.92- 71.1 76.5----
2024-04-14 10:24 pm- 0.0 0.0----29.92- 70.7 76.5----
2024-04-14 10:18 pm- 0.0 0.0----29.93- 70.5 76.5----
2024-04-14 10:12 pm- 0.0 1.0----29.92- 70.7 76.5----
2024-04-14 10:06 pm- 0.0 1.0----29.92- 70.9 76.5----
2024-04-14 10:00 pm SE 1.0 1.9----29.92+0.02 70.7 76.5----
2024-04-14 09:54 pm- 0.0 2.9----29.92- 70.7 76.5----
2024-04-14 09:48 pm SE 1.0 2.9----29.92- 70.9 76.5----
2024-04-14 09:42 pmESE 1.9 2.9----29.92- 70.9 76.5----
2024-04-14 09:36 pm E 1.0 2.9----29.92- 70.9 76.5----
2024-04-14 09:30 pmENE 2.9 2.9----29.92- 70.9 76.5----
2024-04-14 09:24 pm- 0.0 2.9----29.92- 70.9 76.5----
2024-04-14 09:18 pmESE 1.0 4.1----29.92- 71.1 76.5----
2024-04-14 09:12 pm SE 1.9 2.9----29.92- 70.7 76.6----
2024-04-14 09:06 pm- 0.0 1.0----29.92- 70.5 76.6----
2024-04-14 09:00 pm S 1.9 2.9----29.92+0.03 70.5 76.6----
2024-04-14 08:54 pm S 1.9 2.9----29.92- 70.7 76.6----
2024-04-14 08:48 pm S 1.0 2.9----29.91- 70.7 76.6----
2024-04-14 08:42 pm S 1.9 4.1----29.92- 70.7 76.6----
2024-04-14 08:36 pm S 1.9 2.9----29.92- 70.7 76.6----
2024-04-14 08:30 pm- 0.0 1.9----29.92- 70.7 76.6----
2024-04-14 08:24 pm- 0.0 1.9----29.91- 70.7 76.6----
2024-04-14 08:18 pmSSW 1.0 1.9----29.92- 70.9 76.6----
2024-04-14 08:12 pm- 0.0 2.9----29.91- 70.7 76.6----
2024-04-14 08:06 pm SE 1.0 1.9----29.91- 70.7 76.6----
2024-04-14 08:00 pmENE 1.9 4.1----29.91+0.02 70.5 76.6----
2024-04-14 07:54 pmNNE 2.9 4.1----29.91- 70.9 76.6----
2024-04-14 07:48 pmENE 2.9 6.0----29.91- 70.7 76.6----
2024-04-14 07:42 pmNNW 5.1 6.0----29.92- 71.2 76.6----
2024-04-14 07:36 pm N 4.1 5.1----29.91- 71.1 76.6----
2024-04-14 07:30 pm N 5.1 5.1----29.91- 71.2 76.8----
2024-04-14 07:24 pm N 4.1 6.0----29.91- 71.4 76.8----
2024-04-14 07:18 pm N 5.1 6.0----29.91- 71.2 76.8----
2024-04-14 07:12 pm N 5.1 6.0----29.91- 71.2 76.8----
2024-04-14 07:06 pm N 5.1 6.0----29.91- 71.1 76.8----
2024-04-14 07:00 pm N 4.1 6.0----29.91+0.01 71.2 76.8----
2024-04-14 06:54 pm N 5.1 6.0----29.90- 71.1 76.8----
2024-04-14 06:48 pm N 5.1 5.1----29.90- 71.2 76.8----
2024-04-14 06:42 pm N 5.1 6.0----29.90- 71.2 76.8----
2024-04-14 06:36 pm N 5.1 7.0----29.90- 71.2 76.8----
2024-04-14 06:30 pm N 6.0 8.0----29.90- 71.2 76.8----
2024-04-14 06:24 pm N 7.0 8.0----29.90- 71.6 76.8----
2024-04-14 06:18 pm N 5.1 6.0----29.90- 71.2 76.8----
2024-04-14 06:12 pm N 4.1 6.0----29.90- 71.4 76.8----
2024-04-14 06:06 pm N 6.0 7.0----29.90- 71.2 77.0----
2024-04-14 06:00 pm N 7.0 8.0----29.89+0.01 71.6 77.0----
2024-04-14 05:54 pmNNE 6.0 8.0----29.89- 71.4 77.0----
2024-04-14 05:48 pm N 7.0 8.9----29.89- 71.6 77.0----
2024-04-14 05:42 pm N 7.0 8.9----29.89- 71.6 77.0----
2024-04-14 05:36 pm N 6.0 8.0----29.89-- 77.0----
2024-04-14 05:30 pm N 6.0 7.0----29.89-- 77.0----
2024-04-14 05:24 pmNNE 5.1 6.0----29.89-- 77.0----
2024-04-14 05:18 pmNNE 5.1 8.9----29.89-- 77.2----
2024-04-14 05:12 pmNNE 8.0 9.9----29.89-- 77.2----
2024-04-14 05:06 pm N 7.0 8.9----29.89-- 77.2----
2024-04-14 05:00 pm N 7.0 8.0----29.89+0.02- 77.2----
2024-04-14 04:54 pm N 5.1 7.0----29.90-- 77.2----
2024-04-14 04:48 pm N 6.0 8.0----29.90-- 77.2----
2024-04-14 04:42 pm N 6.0 7.0----29.90-- 77.2----
2024-04-14 04:36 pmNNE 5.1 6.0----29.90- 71.8 77.4----
2024-04-14 04:30 pm NE 2.9 4.1----29.91- 71.8 77.4----
2024-04-14 04:24 pm NE 1.9 5.1----29.90- 72.0 77.4----
2024-04-14 04:18 pm NE 4.1 5.1----29.89- 72.1 77.4----
2024-04-14 04:12 pmENE 1.9 5.1----29.89- 72.0 77.4----
2024-04-14 04:06 pm N 2.9 7.0----29.89- 72.5 77.4----
2024-04-14 04:00 pm N 5.1 7.0----29.89+0.00 73.0 77.4----
2024-04-14 03:54 pmWSW 1.9 7.0----29.89- 72.7 77.4----
2024-04-14 03:48 pmWSW 4.1 7.0----29.89- 72.5 77.4----
2024-04-14 03:42 pm S 2.9 5.1----29.89- 73.0 77.4----
2024-04-14 03:36 pmSSW 1.9 7.0----29.88- 73.2 77.4----
2024-04-14 03:30 pm S 5.1 8.9----29.87- 72.9 77.4----
2024-04-14 03:24 pm S 5.1 12.0----29.88- 73.0 77.4----
2024-04-14 03:18 pmSSW 4.1 8.9----29.88- 73.0 77.4----
2024-04-14 03:12 pm S 4.1 12.0----29.88- 73.4 77.4----
2024-04-14 03:06 pmSSW 5.1 12.0----29.88- 73.0 77.4----
2024-04-14 03:00 pmSSW 4.1 8.0----29.88-0.04 73.6 77.4----
2024-04-14 02:54 pm S 2.9 11.1----29.88- 73.9 77.4----
2024-04-14 02:48 pm S 4.1 12.0----29.87- 74.1 77.4----
2024-04-14 02:42 pm S 5.1 12.0----29.87- 74.5 77.4----
2024-04-14 02:36 pm S 7.0 13.0----29.87-- 77.4----
2024-04-14 02:30 pmSSW 8.0 15.0----29.87-- 77.4----
2024-04-14 02:24 pm S 5.1 15.9----29.87-- 77.4----
2024-04-14 02:18 pm S 6.0 12.0----29.87-- 77.4----
2024-04-14 02:12 pm S 7.0 13.0----29.87-- 77.4----
2024-04-14 02:06 pm S 5.1 13.0----29.87-- 77.4----
2024-04-14 02:00 pm S 4.1 8.9----29.87-0.06- 77.4----
2024-04-14 01:54 pm S 7.0 14.0----29.88-- 77.4----
2024-04-14 01:48 pm S 6.0 12.0----29.88-- 77.4----
2024-04-14 01:42 pm S 7.0 11.1----29.88-- 77.4----
2024-04-14 01:36 pm-------29.89- 76.3 77.4----
2024-04-14 01:30 pm-------29.89- 75.9 77.4----
2024-04-14 01:24 pm-------29.89- 76.3 77.4----
2024-04-14 01:18 pm-------29.89- 77.4 77.2----
2024-04-14 01:12 pm-------29.89- 77.9 77.2----
2024-04-14 01:06 pm-------29.89- 77.5 77.2----
2024-04-14 01:00 pm-------29.89-0.04 76.8 77.2----
2024-04-14 12:54 pm-------29.89- 76.8 77.2----
2024-04-14 12:48 pm-------29.90- 76.8 77.2----
2024-04-14 12:42 pm-------29.90- 77.2 77.0----
2024-04-14 12:36 pm S 6.0 11.1----29.90- 78.3 77.0----
2024-04-14 12:30 pmSSW 8.0 13.0----29.91- 78.1 77.0----
2024-04-14 12:24 pmSSW 7.0 13.0----29.91- 77.5 77.0----
2024-04-14 12:18 pm S 8.9 15.0----29.92- 77.0 77.0----
2024-04-14 12:12 pm S 5.1 14.0----29.91- 77.5 77.0----
2024-04-14 12:06 pm S 7.0 15.0----29.91- 77.4 77.0----
2024-04-14 12:00 pmSSW 6.0 15.9----29.92- 77.0 76.8----
2024-04-14 11:54 am S 5.1 9.9----29.92- 76.8 76.8----
2024-04-14 11:48 am S 7.0 11.1----29.92- 77.4 76.8----
2024-04-14 11:42 am S 7.0 12.0----29.92- 77.4 76.8----
2024-04-14 11:36 am S 7.0 14.0----29.93-- 76.8----
2024-04-14 11:30 am S 4.1 8.9----29.94-- 76.8----
2024-04-14 11:24 am S 5.1 8.9----29.93-- 76.8----
2024-04-14 11:18 am S 5.1 11.1----29.93-- 76.8----
2024-04-14 11:12 am S 4.1 8.9----29.94-- 76.8----
2024-04-14 11:06 amSSW 6.0 9.9----29.94-- 76.8----
2024-04-14 11:00 am S 2.9 8.0----29.94+0.00- 76.6----
2024-04-14 10:54 amSSW 6.0 14.0----29.94-- 76.6----
2024-04-14 10:48 am S 7.0 11.1----29.94-- 76.6----
2024-04-14 10:42 am S 4.1 8.0----29.93-- 76.6----
2024-04-14 10:36 amSSW 2.9 8.9----29.94-- 76.6----
2024-04-14 10:30 amSSW 2.9 8.9----29.94-- 76.6----
2024-04-14 10:24 am S 5.1 12.0----29.94-- 76.6----
2024-04-14 10:18 amSSW 6.0 11.1----29.94-- 76.6----
2024-04-14 10:12 am S 4.1 7.0----29.94-- 76.6----
2024-04-14 10:06 am S 2.9 5.1----29.93-- 76.6----
2024-04-14 10:00 am S 4.1 8.0----29.93+0.00- 76.6----
2024-04-14 09:54 amSSW 4.1 9.9----29.93-- 76.6----
2024-04-14 09:48 am S 7.0 11.1----29.93-- 76.6----
2024-04-14 09:42 am S 4.1 8.9----29.93-- 76.6----
2024-04-14 09:36 am S 6.0 9.9------ 78.1 76.6----
2024-04-14 09:30 am S 7.0 11.1------ 78.1 76.6----
2024-04-14 09:24 am S 5.1 8.0------ 78.3 76.6----
2024-04-14 09:18 am S 5.1 11.1------ 78.1 76.6----
2024-04-14 09:12 amSSW 4.1 8.9------ 77.9 76.6----
2024-04-14 09:06 am S 5.1 13.0------ 77.5 76.6----
2024-04-14 09:00 am S 5.1 8.9------ 77.4 76.6----
2024-04-14 08:54 am S 4.1 9.9------ 77.4 76.6----
2024-04-14 08:48 am S 5.1 8.0------ 77.4 76.6----
2024-04-14 08:42 am S 5.1 8.0------ 77.5 76.6----
2024-04-14 08:36 amSSW 4.1 7.0----29.94- 77.5 76.6----
2024-04-14 08:30 am S 4.1 7.0----29.94- 77.2 76.6----
2024-04-14 08:24 amSSW 1.9 8.0----29.93- 77.4 76.6----
2024-04-14 08:18 am S 2.9 7.0----29.93- 77.2 76.6----
2024-04-14 08:12 am S 5.1 8.0----29.93- 77.2 76.6----
2024-04-14 08:06 am S 6.0 8.9----29.93- 76.8 76.6----
2024-04-14 08:00 am S 5.1 8.0----29.93- 76.6 76.8----
2024-04-14 07:54 am S 7.0 11.1----29.93- 76.1 76.8----
2024-04-14 07:48 amSSW 1.9 7.0----29.93- 76.3 76.8----
2024-04-14 07:42 amSSW 1.9 8.9----29.93- 76.1 76.8----
2024-04-14 07:36 amSSE 1.9 6.0----29.93- 75.9 76.8----
2024-04-14 07:30 amSSE 1.9 8.0----29.93- 76.8 76.8----
2024-04-14 07:24 am S 5.1 8.9----29.93- 76.5 76.8----
2024-04-14 07:18 am S 4.1 7.0----29.94- 76.1 76.8----
2024-04-14 07:12 am S 4.1 7.0----29.94- 75.9 76.8----
2024-04-14 07:06 am S 4.1 6.0----29.93- 75.9 76.8----
2024-04-14 07:00 am S 4.1 7.0----29.93+0.02 75.9 76.8----
2024-04-14 06:54 am S 4.1 7.0----29.93- 75.9 76.8----
2024-04-14 06:48 amSSW 1.9 2.9----29.93- 76.3 76.8----
2024-04-14 06:42 amSSE 1.9 6.0----29.93- 76.5 76.8----
2024-04-14 06:36 am S 1.9 5.1----29.92-------
2024-04-14 06:30 am S 2.9 7.0----29.93-------
2024-04-14 06:24 am S 4.1 8.9----29.93-------
2024-04-14 06:18 am S 4.1 8.0----29.93-------
2024-04-14 06:12 am S 1.9 8.0----29.93-------
2024-04-14 06:06 am S 6.0 8.9----29.93-------
2024-04-14 06:00 am S 5.1 8.0----29.93-------
2024-04-14 05:54 amSSW 4.1 7.0----29.93-------
2024-04-14 05:48 am S 5.1 7.0----29.94-------
2024-04-14 05:42 am S 6.0 9.9----29.94-------
2024-04-14 05:36 amSSW 2.9 8.9------------
2024-04-14 05:30 am S 4.1 8.0------------
2024-04-14 05:24 am S 4.1 7.0------------
2024-04-14 05:18 am S 2.9 7.0------------
2024-04-14 05:12 am S 4.1 6.0------------
2024-04-14 05:06 am S 4.1 7.0------------
2024-04-14 05:00 am S 4.1 7.0------------
2024-04-14 04:54 amSSW 2.9 6.0------------